Regional Weather Roundup
Issued by NWS

Home | Current Version | Previous Version | Graphics & Text | Print | Product List | Glossary On
Versions: 1 2 3 4 5 6 7 8 9 10 11 12 13 14 15 16 17 18 19 20 21 22 23 24 25 26 27 28 29 30 31 32 33 34 35 36 37 38 39 40 41 42 43 44 45 46 47 48 49 50
000
ASUS43 KLMK 022102
RWRKY
KENTUCKY REGIONAL WEATHER ROUNDUP
NATIONAL WEATHER SERVICE LOUISVILLE KY
500 PM EDT THU JUL 02 2015

NOTE "FAIR" INDICATES FEW OR NO CLOUDS BELOW 12,000 FEET
WITH NO SIGNIFICANT WEATHER AND/OR OBSTRUCTIONS TO VISIBILITY.

KYZ001>023-026-027-061>063-070>075-022200-
WESTERN AND SOUTH CENTRAL KENTUCKY

CITY           SKY/WX    TMP DP  RH WIND       PRES   REMARKS
PADUCAH        MOSUNNY   84  71  65 W13       29.83R
HENDERSON      MOSUNNY   81  70  69 N5        29.82S
OWENSBORO      PTSUNNY   82  71  69 NE6       29.84S
HOPKINSVILLE   CLOUDY    77  73  87 SW9       29.84F
BOWLING GREEN  LGT RAIN  81  70  69 VRB5      29.85R
GLASGOW        NOT AVBL
$$

KYZ024-025-028>034-038-045-046-053-022200-
NORTH CENTRAL KENTUCKY

CITY           SKY/WX    TMP DP  RH WIND       PRES   REMARKS
LOUISVILLE/SDF PTSUNNY   80  71  74 NE6       29.83F
LOUISVILLE/LOU PTSUNNY   79  70  74 CALM      29.85F
FORT KNOX      NOT AVBL
$$

KYZ035>037-039>044-047>052-055>060-089>105-022200-
NORTHEAST KENTUCKY

CITY           SKY/WX    TMP DP  RH WIND       PRES   REMARKS
LEXINGTON      CLOUDY    73  68  84 S5        29.88F
COVINGTON      PTSUNNY   77  66  68 VRB7      29.87F
FRANKFORT      CLOUDY    77  68  73 E5        29.85F
$$

KYZ054-064>069-076>088-106>120-022200-
SOUTHEAST KENTUCKY

CITY           SKY/WX    TMP DP  RH WIND       PRES   REMARKS
JACKSON        PTSUNNY   76  68  76 CALM      29.90F
LONDON         PTSUNNY   77  64  64 S10       29.91F
SOMERSET       NOT AVBL
MIDDLESBORO    NOT AVBL
MONTICELLO     PTCLDY    77  73  87 CALM      29.92F
$$



USA.gov is the U.S. government's official web portal to all federal, state and local government web resources and services.